Location: Chmeln�
(49.6483°N, 14.9871°E)
Time: 15:23:30
(UTC+00:00)

Nadezhda 4 Rocket - Pass Details

Date: 18 September 2020
Orbit: 949 x 993 km, 82.9° (Epoch: 24 October)

Event Time Altitude Azimuth Distance (km) Brightness Sun altitude
Rises 18:50:03 0° 350° (N) 3,641 7.5 -17.1°
Reaches altitude 10° 18:52:34 10° 350° (N) 2,689 6.8 -17.5°
Maximum altitude 18:58:43 88° 261° (W) 958 3.9 -18.4°
Enters shadow 19:04:42 11° 174° (S) 2,619 5.9 -19.3°
